Year,Month,Day,Hour,Minute,Value (Times are PST for temperature in C)
2012,09,30,00,00,9.20
2012,09,30,00,01,9.20
2012,09,30,00,02,9.20
2012,09,30,00,03,9.20
2012,09,30,00,04,9.20
2012,09,30,00,05,9.10
2012,09,30,00,06,9.10
2012,09,30,00,07,9.20
2012,09,30,00,08,9.20
2012,09,30,00,09,9.20
2012,09,30,00,10,9.20
2012,09,30,00,11,9.20
2012,09,30,00,12,9.20
2012,09,30,00,13,9.30
2012,09,30,00,14,9.40
2012,09,30,00,15,9.40
2012,09,30,00,16,9.50
2012,09,30,00,17,9.50
2012,09,30,00,18,9.50
2012,09,30,00,19,9.50
2012,09,30,00,20,9.40
2012,09,30,00,21,9.40
2012,09,30,00,22,9.40
2012,09,30,00,23,9.40
2012,09,30,00,24,9.30
2012,09,30,00,25,9.30
2012,09,30,00,26,9.30
2012,09,30,00,27,9.20
2012,09,30,00,28,9.20
2012,09,30,00,29,9.10
2012,09,30,00,30,9.10
2012,09,30,00,31,9.10
2012,09,30,00,32,9.10
2012,09,30,00,33,9.10
2012,09,30,00,34,9.10
2012,09,30,00,35,9.10
2012,09,30,00,36,9.20
2012,09,30,00,37,9.20
2012,09,30,00,38,9.20
2012,09,30,00,39,9.20
2012,09,30,00,40,9.20
2012,09,30,00,41,9.20
2012,09,30,00,42,9.20
2012,09,30,00,43,9.20
2012,09,30,00,44,9.20
2012,09,30,00,45,9.20
2012,09,30,00,46,9.10
2012,09,30,00,47,9.10
2012,09,30,00,48,9.10
2012,09,30,00,49,9.10
2012,09,30,00,50,9.00
2012,09,30,00,51,9.00
2012,09,30,00,52,9.00
2012,09,30,00,53,9.00
2012,09,30,00,54,9.00
2012,09,30,00,55,9.00
2012,09,30,00,56,8.90
2012,09,30,00,57,8.90
2012,09,30,00,58,8.90
2012,09,30,00,59,8.90
2012,09,30,01,00,8.90
2012,09,30,01,01,9.00
2012,09,30,01,02,9.00
2012,09,30,01,03,9.00
2012,09,30,01,04,9.00
2012,09,30,01,05,8.90
2012,09,30,01,06,8.90
2012,09,30,01,07,8.90
2012,09,30,01,08,8.90
2012,09,30,01,09,8.90
2012,09,30,01,10,8.90
2012,09,30,01,11,8.80
2012,09,30,01,12,8.80
2012,09,30,01,13,8.80
2012,09,30,01,14,8.80
2012,09,30,01,15,8.70
2012,09,30,01,16,8.70
2012,09,30,01,17,8.70
2012,09,30,01,18,8.70
2012,09,30,01,19,8.70
2012,09,30,01,20,8.70
2012,09,30,01,21,8.70
2012,09,30,01,22,8.70
2012,09,30,01,23,8.70
2012,09,30,01,24,8.70
2012,09,30,01,25,8.70
2012,09,30,01,26,8.70
2012,09,30,01,27,8.70
2012,09,30,01,28,8.70
2012,09,30,01,29,8.70
2012,09,30,01,30,8.70
2012,09,30,01,31,8.70
2012,09,30,01,32,8.70
2012,09,30,01,33,8.70
2012,09,30,01,34,8.70
2012,09,30,01,35,8.70
2012,09,30,01,36,8.70
2012,09,30,01,37,8.70
2012,09,30,01,38,8.70
2012,09,30,01,39,8.70
2012,09,30,01,40,8.70
2012,09,30,01,41,8.70
2012,09,30,01,42,8.70
2012,09,30,01,43,8.70
2012,09,30,01,44,8.70
2012,09,30,01,45,8.60
2012,09,30,01,46,8.60
2012,09,30,01,47,8.60
2012,09,30,01,48,8.60
2012,09,30,01,49,8.60
2012,09,30,01,50,8.60
2012,09,30,01,51,8.50
2012,09,30,01,52,8.50
2012,09,30,01,53,8.50
2012,09,30,01,54,8.60
2012,09,30,01,55,8.60
2012,09,30,01,56,8.60
2012,09,30,01,57,8.70
2012,09,30,01,58,8.70
2012,09,30,01,59,8.70
2012,09,30,02,00,8.60
2012,09,30,02,01,8.60
2012,09,30,02,02,8.60
2012,09,30,02,03,8.60
2012,09,30,02,04,8.60
2012,09,30,02,05,8.60
2012,09,30,02,06,8.50
2012,09,30,02,07,8.60
2012,09,30,02,08,8.60
2012,09,30,02,09,8.50
2012,09,30,02,10,8.50
2012,09,30,02,11,8.50
2012,09,30,02,12,8.50
2012,09,30,02,13,8.50
2012,09,30,02,14,8.50
2012,09,30,02,15,8.50
2012,09,30,02,16,8.50
2012,09,30,02,17,8.50
2012,09,30,02,18,8.50
2012,09,30,02,19,8.40
2012,09,30,02,20,8.40
2012,09,30,02,21,8.40
2012,09,30,02,22,8.40
2012,09,30,02,23,8.50
2012,09,30,02,24,8.50
2012,09,30,02,25,8.50
2012,09,30,02,26,8.50
2012,09,30,02,27,8.50
2012,09,30,02,28,8.50
2012,09,30,02,29,8.50
2012,09,30,02,30,8.50
2012,09,30,02,31,8.40
2012,09,30,02,32,8.40
2012,09,30,02,33,8.40
2012,09,30,02,34,8.30
2012,09,30,02,35,8.30
2012,09,30,02,36,8.30
2012,09,30,02,37,8.20
2012,09,30,02,38,8.10
2012,09,30,02,39,8.10
2012,09,30,02,40,8.10
2012,09,30,02,41,8.10
2012,09,30,02,42,8.10
2012,09,30,02,43,8.20
2012,09,30,02,44,8.20
2012,09,30,02,45,8.20
2012,09,30,02,46,8.20
2012,09,30,02,47,8.20
2012,09,30,02,48,8.20
2012,09,30,02,49,8.20
2012,09,30,02,50,8.10
2012,09,30,02,51,8.10
2012,09,30,02,52,8.00
2012,09,30,02,53,8.00
2012,09,30,02,54,8.00
2012,09,30,02,55,8.00
2012,09,30,02,56,8.00
2012,09,30,02,57,7.90
2012,09,30,02,58,7.90
2012,09,30,02,59,7.90
2012,09,30,03,00,7.80
2012,09,30,03,01,7.80
2012,09,30,03,02,7.80
2012,09,30,03,03,7.80
2012,09,30,03,04,7.80
2012,09,30,03,05,7.80
2012,09,30,03,06,7.80
2012,09,30,03,07,7.80
2012,09,30,03,08,7.80
2012,09,30,03,09,7.80
2012,09,30,03,10,7.80
2012,09,30,03,11,7.80
2012,09,30,03,12,7.80
2012,09,30,03,13,7.70
2012,09,30,03,14,7.70
2012,09,30,03,15,7.60
2012,09,30,03,16,7.60
2012,09,30,03,17,7.60
2012,09,30,03,18,7.50
2012,09,30,03,19,7.50
2012,09,30,03,20,7.50
2012,09,30,03,21,7.40
2012,09,30,03,22,7.40
2012,09,30,03,23,7.40
2012,09,30,03,24,7.40
2012,09,30,03,25,7.40
2012,09,30,03,26,7.40
2012,09,30,03,27,7.40
2012,09,30,03,28,7.40
2012,09,30,03,29,7.40
2012,09,30,03,30,7.40
2012,09,30,03,31,7.40
2012,09,30,03,32,7.40
2012,09,30,03,33,7.40
2012,09,30,03,34,7.30
2012,09,30,03,35,7.30
2012,09,30,03,36,7.30
2012,09,30,03,37,7.30
2012,09,30,03,38,7.30
2012,09,30,03,39,7.30
2012,09,30,03,40,7.20
2012,09,30,03,41,7.20
2012,09,30,03,42,7.20
2012,09,30,03,43,7.20
2012,09,30,03,44,7.20
2012,09,30,03,45,7.20
2012,09,30,03,46,7.20
2012,09,30,03,47,7.20
2012,09,30,03,48,7.20
2012,09,30,03,49,7.20
2012,09,30,03,50,7.20
2012,09,30,03,51,7.20
2012,09,30,03,52,7.20
2012,09,30,03,53,7.20
2012,09,30,03,54,7.20
2012,09,30,03,55,7.10
2012,09,30,03,56,7.10
2012,09,30,03,57,7.10
2012,09,30,03,58,7.00
2012,09,30,03,59,7.00
2012,09,30,04,00,7.00
2012,09,30,04,01,7.00
2012,09,30,04,02,7.00
2012,09,30,04,03,7.00
2012,09,30,04,04,7.10
2012,09,30,04,05,7.10
2012,09,30,04,06,7.10
2012,09,30,04,07,7.10
2012,09,30,04,08,7.10
2012,09,30,04,09,7.20
2012,09,30,04,10,7.20
2012,09,30,04,11,7.20
2012,09,30,04,12,7.20
2012,09,30,04,13,7.20
2012,09,30,04,14,7.20
2012,09,30,04,15,7.20
2012,09,30,04,16,7.30
2012,09,30,04,17,7.30
2012,09,30,04,18,7.30
2012,09,30,04,19,7.30
2012,09,30,04,20,7.30
2012,09,30,04,21,7.20
2012,09,30,04,22,7.10
2012,09,30,04,23,7.10
2012,09,30,04,24,7.10
2012,09,30,04,25,7.00
2012,09,30,04,26,7.00
2012,09,30,04,27,7.00
2012,09,30,04,28,7.10
2012,09,30,04,29,7.10
2012,09,30,04,30,7.20
2012,09,30,04,31,7.30
2012,09,30,04,32,7.30
2012,09,30,04,33,7.30
2012,09,30,04,34,7.30
2012,09,30,04,35,7.30
2012,09,30,04,36,7.30
2012,09,30,04,37,7.30
2012,09,30,04,38,7.20
2012,09,30,04,39,7.20
2012,09,30,04,40,7.20
2012,09,30,04,41,7.10
2012,09,30,04,42,7.10
2012,09,30,04,43,7.00
2012,09,30,04,44,7.00
2012,09,30,04,45,6.90
2012,09,30,04,46,6.90
2012,09,30,04,47,6.90
2012,09,30,04,48,6.90
2012,09,30,04,49,6.90
2012,09,30,04,50,7.00
2012,09,30,04,51,7.00
2012,09,30,04,52,7.10
2012,09,30,04,53,7.10
2012,09,30,04,54,7.10
2012,09,30,04,55,7.00
2012,09,30,04,56,7.00
2012,09,30,04,57,7.10
2012,09,30,04,58,7.10
2012,09,30,04,59,7.10
2012,09,30,05,00,7.10
2012,09,30,05,01,7.20
2012,09,30,05,02,7.20
2012,09,30,05,03,7.20
2012,09,30,05,04,7.20
2012,09,30,05,05,7.20
2012,09,30,05,06,7.10
2012,09,30,05,07,7.10
2012,09,30,05,08,7.10
2012,09,30,05,09,7.00
2012,09,30,05,10,7.00
2012,09,30,05,11,7.00
2012,09,30,05,12,7.00
2012,09,30,05,13,7.00
2012,09,30,05,14,7.00
2012,09,30,05,15,7.00
2012,09,30,05,16,7.00
2012,09,30,05,17,7.00
2012,09,30,05,18,7.10
2012,09,30,05,19,7.10
2012,09,30,05,20,7.10
2012,09,30,05,21,7.20
2012,09,30,05,22,7.20
2012,09,30,05,23,7.20
2012,09,30,05,24,7.20
2012,09,30,05,25,7.20
2012,09,30,05,26,7.20
2012,09,30,05,27,7.10
2012,09,30,05,28,7.10
2012,09,30,05,29,7.10
2012,09,30,05,30,7.10
2012,09,30,05,31,7.10
2012,09,30,05,32,7.10
2012,09,30,05,33,7.10
2012,09,30,05,34,7.10
2012,09,30,05,35,7.10
2012,09,30,05,36,7.10
2012,09,30,05,37,7.10
2012,09,30,05,38,7.10
2012,09,30,05,39,7.10
2012,09,30,05,40,7.10
2012,09,30,05,41,7.10
2012,09,30,05,42,7.10
2012,09,30,05,43,7.20
2012,09,30,05,44,7.20
2012,09,30,05,45,7.20
2012,09,30,05,46,7.20
2012,09,30,05,47,7.20
2012,09,30,05,48,7.20
2012,09,30,05,49,7.00
2012,09,30,05,50,6.80
2012,09,30,05,51,6.60
2012,09,30,05,52,6.40
2012,09,30,05,53,6.30
2012,09,30,05,54,6.20
2012,09,30,05,55,6.30
2012,09,30,05,56,6.30
2012,09,30,05,57,6.40
2012,09,30,05,58,6.40
2012,09,30,05,59,6.40
2012,09,30,06,00,6.60
2012,09,30,06,01,6.60
2012,09,30,06,02,6.60
2012,09,30,06,03,6.60
2012,09,30,06,04,6.60
2012,09,30,06,05,6.60
2012,09,30,06,06,6.60
2012,09,30,06,07,6.70
2012,09,30,06,08,6.70
2012,09,30,06,09,6.80
2012,09,30,06,10,6.80
2012,09,30,06,11,6.80
2012,09,30,06,12,6.80
2012,09,30,06,13,6.80
2012,09,30,06,14,6.80
2012,09,30,06,15,6.80
2012,09,30,06,16,6.80
2012,09,30,06,17,6.80
2012,09,30,06,18,6.80
2012,09,30,06,19,6.80
2012,09,30,06,20,6.80
2012,09,30,06,21,6.80
2012,09,30,06,22,6.80
2012,09,30,06,23,6.80
2012,09,30,06,24,6.80
2012,09,30,06,25,6.80
2012,09,30,06,26,6.80
2012,09,30,06,27,6.80
2012,09,30,06,28,6.80
2012,09,30,06,29,6.80
2012,09,30,06,30,6.80
2012,09,30,06,31,6.80
2012,09,30,06,32,6.80
2012,09,30,06,33,6.80
2012,09,30,06,34,6.80
2012,09,30,06,35,6.80
2012,09,30,07,43,6.70
2012,09,30,07,44,6.70
2012,09,30,07,45,6.70
2012,09,30,07,46,6.70
2012,09,30,07,47,6.70
2012,09,30,07,48,6.70
2012,09,30,07,49,6.70
2012,09,30,07,50,6.70
2012,09,30,07,51,6.70
2012,09,30,07,52,6.60
2012,09,30,07,53,6.60
2012,09,30,07,54,6.60
2012,09,30,07,55,6.60
2012,09,30,07,56,6.60
2012,09,30,07,57,6.60
2012,09,30,07,58,6.60
2012,09,30,07,59,6.60
2012,09,30,08,00,6.70
2012,09,30,08,01,6.70
2012,09,30,08,02,6.70
2012,09,30,08,03,6.80
2012,09,30,08,04,6.80
2012,09,30,08,05,6.80
2012,09,30,08,06,6.80
2012,09,30,08,07,6.80
2012,09,30,08,08,6.80
2012,09,30,08,09,6.80
2012,09,30,08,10,6.80
2012,09,30,08,11,6.80
2012,09,30,08,12,6.80
2012,09,30,08,13,6.80
2012,09,30,08,14,6.80
2012,09,30,08,15,6.90
2012,09,30,08,16,7.00
2012,09,30,08,17,7.00
2012,09,30,08,18,7.00
2012,09,30,08,19,7.10
2012,09,30,08,20,7.10
2012,09,30,08,21,7.20
2012,09,30,08,22,7.30
2012,09,30,08,23,7.30
2012,09,30,08,24,7.40
2012,09,30,08,25,7.40
2012,09,30,08,26,7.50
2012,09,30,08,27,7.50
2012,09,30,08,28,7.60
2012,09,30,08,29,7.60
2012,09,30,08,30,7.60
2012,09,30,08,31,7.70
2012,09,30,08,32,7.70
2012,09,30,08,33,7.80
2012,09,30,08,34,7.80
2012,09,30,08,35,7.90
2012,09,30,08,36,8.00
2012,09,30,08,37,8.10
2012,09,30,08,38,8.20
2012,09,30,08,39,8.30
2012,09,30,08,40,8.30
2012,09,30,08,41,8.40
2012,09,30,08,42,8.40
2012,09,30,08,43,8.40
2012,09,30,08,44,8.30
2012,09,30,08,45,8.30
2012,09,30,08,46,8.30
2012,09,30,08,47,8.40
2012,09,30,08,48,8.50
2012,09,30,08,49,8.50
2012,09,30,08,50,8.60
2012,09,30,08,51,8.70
2012,09,30,08,52,8.70
2012,09,30,08,53,8.80
2012,09,30,08,54,8.90
2012,09,30,08,55,8.90
2012,09,30,08,56,8.90
2012,09,30,08,57,8.90
2012,09,30,08,58,9.00
2012,09,30,08,59,9.10
2012,09,30,09,00,9.20
2012,09,30,09,01,9.20
2012,09,30,09,02,9.30
2012,09,30,09,03,9.40
2012,09,30,09,04,9.50
2012,09,30,09,05,9.70
2012,09,30,09,06,9.80
2012,09,30,09,07,9.90
2012,09,30,09,08,10.00
2012,09,30,09,09,10.20
2012,09,30,09,10,10.20
2012,09,30,09,11,10.20
2012,09,30,09,12,10.20
2012,09,30,09,13,10.20
2012,09,30,09,14,10.20
2012,09,30,09,15,10.20
2012,09,30,09,16,10.20
2012,09,30,09,17,10.20
2012,09,30,09,18,10.20
2012,09,30,09,19,10.20
2012,09,30,09,20,10.30
2012,09,30,09,21,10.30
2012,09,30,09,22,10.40
2012,09,30,09,23,10.40
2012,09,30,09,24,10.40
2012,09,30,09,25,10.60
2012,09,30,09,26,10.60
2012,09,30,09,27,10.60
2012,09,30,09,28,10.60
2012,09,30,09,29,10.60
2012,09,30,09,30,10.60
2012,09,30,09,31,10.60
2012,09,30,09,32,10.70
2012,09,30,09,33,10.70
2012,09,30,09,34,10.70
2012,09,30,09,35,10.80
2012,09,30,09,36,10.80
2012,09,30,09,37,10.90
2012,09,30,09,38,11.00
2012,09,30,09,39,11.10
2012,09,30,09,40,11.30
2012,09,30,09,41,11.40
2012,09,30,09,42,11.50
2012,09,30,09,43,11.70
2012,09,30,09,44,11.80
2012,09,30,09,45,11.80
2012,09,30,09,46,11.90
2012,09,30,09,47,12.00
2012,09,30,09,48,12.00
2012,09,30,09,49,12.00
2012,09,30,09,50,12.00
2012,09,30,09,51,12.10
2012,09,30,09,52,12.10
2012,09,30,09,53,12.20
2012,09,30,09,54,12.20
2012,09,30,09,55,12.20
2012,09,30,09,56,12.30
2012,09,30,09,57,12.30
2012,09,30,09,58,12.30
2012,09,30,09,59,12.40
2012,09,30,10,00,12.50
2012,09,30,10,01,12.60
2012,09,30,10,02,12.60
2012,09,30,10,03,12.60
2012,09,30,10,04,12.70
2012,09,30,10,05,12.80
2012,09,30,10,06,12.80
2012,09,30,10,07,12.80
2012,09,30,10,08,12.80
2012,09,30,10,09,12.80
2012,09,30,10,10,12.80
2012,09,30,10,11,12.90
2012,09,30,10,12,12.90
2012,09,30,10,13,13.00
2012,09,30,10,14,13.10
2012,09,30,10,15,13.20
2012,09,30,10,16,13.20
2012,09,30,10,17,13.30
2012,09,30,10,18,13.40
2012,09,30,10,19,13.50
2012,09,30,10,20,13.60
2012,09,30,10,21,13.70
2012,09,30,10,22,13.70
2012,09,30,10,23,13.80
2012,09,30,10,24,13.90
2012,09,30,10,25,13.90
2012,09,30,10,26,14.00
2012,09,30,10,27,14.10
2012,09,30,10,28,14.20
2012,09,30,10,29,14.30
2012,09,30,10,30,14.40
2012,09,30,10,31,14.50
2012,09,30,10,32,14.60
2012,09,30,10,33,14.60
2012,09,30,10,34,14.60
2012,09,30,10,35,14.70
2012,09,30,10,36,14.70
2012,09,30,10,37,14.80
2012,09,30,10,38,14.80
2012,09,30,10,39,14.80
2012,09,30,10,40,14.80
2012,09,30,10,41,14.80
2012,09,30,10,42,14.80
2012,09,30,10,43,14.90
2012,09,30,10,44,14.90
2012,09,30,10,45,15.00
2012,09,30,10,46,15.00
2012,09,30,10,47,15.10
2012,09,30,10,48,15.20
2012,09,30,10,49,15.20
2012,09,30,10,50,15.30
2012,09,30,10,51,15.30
2012,09,30,10,52,15.30
2012,09,30,10,53,15.30
2012,09,30,10,54,15.40
2012,09,30,10,55,15.40
2012,09,30,10,56,15.40
2012,09,30,10,57,15.50
2012,09,30,10,58,15.50
2012,09,30,10,59,15.50
2012,09,30,11,00,15.40
2012,09,30,11,01,15.40
2012,09,30,11,02,15.30
2012,09,30,11,03,15.30
2012,09,30,11,04,15.30
2012,09,30,11,05,15.30
2012,09,30,11,06,15.30
2012,09,30,11,07,15.30
2012,09,30,11,08,15.30
2012,09,30,11,09,15.40
2012,09,30,11,10,15.50
2012,09,30,11,11,15.60
2012,09,30,11,12,15.60
2012,09,30,11,13,15.80
2012,09,30,11,14,15.80
2012,09,30,11,15,15.90
2012,09,30,11,16,16.10
2012,09,30,11,17,16.20
2012,09,30,11,18,16.30
2012,09,30,11,19,16.40
2012,09,30,11,20,16.50
2012,09,30,11,21,16.60
2012,09,30,11,22,16.60
2012,09,30,11,23,16.60
2012,09,30,11,24,16.50
2012,09,30,11,25,16.40
2012,09,30,11,26,16.40
2012,09,30,11,27,16.40
2012,09,30,11,28,16.40
2012,09,30,11,29,16.50
2012,09,30,11,30,16.60
2012,09,30,11,31,16.70
2012,09,30,11,32,16.90
2012,09,30,11,33,17.00
2012,09,30,11,34,17.10
2012,09,30,11,35,17.10
2012,09,30,11,36,17.20
2012,09,30,11,37,17.20
2012,09,30,11,38,17.30
2012,09,30,11,39,17.30
2012,09,30,11,40,17.30
2012,09,30,11,41,17.40
2012,09,30,11,42,17.40
2012,09,30,11,43,17.50
2012,09,30,11,44,17.60
2012,09,30,11,45,17.60
2012,09,30,11,46,17.70
2012,09,30,11,47,17.80
2012,09,30,11,48,17.80
2012,09,30,11,49,17.80
2012,09,30,11,50,17.70
2012,09,30,11,51,17.60
2012,09,30,11,52,17.40
2012,09,30,11,53,17.30
2012,09,30,11,54,17.30
2012,09,30,11,55,17.20
2012,09,30,11,56,17.30
2012,09,30,11,57,17.30
2012,09,30,11,58,17.50
2012,09,30,11,59,17.50
2012,09,30,12,00,17.60
2012,09,30,12,01,17.60
2012,09,30,12,02,17.60
2012,09,30,12,03,17.60
2012,09,30,12,04,17.50
2012,09,30,12,05,17.50
2012,09,30,12,06,17.50
2012,09,30,12,07,17.50
2012,09,30,12,08,17.50
2012,09,30,12,09,17.50
2012,09,30,12,10,17.40
2012,09,30,12,11,17.30
2012,09,30,12,12,17.30
2012,09,30,12,13,17.30
2012,09,30,12,14,17.50
2012,09,30,12,15,17.60
2012,09,30,12,16,17.60
2012,09,30,12,17,17.60
2012,09,30,12,18,17.50
2012,09,30,12,19,17.30
2012,09,30,12,20,17.00
2012,09,30,12,21,16.80
2012,09,30,12,22,16.50
2012,09,30,12,23,16.30
2012,09,30,12,24,16.30
2012,09,30,12,25,16.30
2012,09,30,12,26,16.30
2012,09,30,12,27,16.30
2012,09,30,12,28,16.20
2012,09,30,12,29,16.30
2012,09,30,12,30,16.20
2012,09,30,12,31,16.10
2012,09,30,12,32,15.90
2012,09,30,12,33,15.80
2012,09,30,12,34,15.80
2012,09,30,12,35,15.80
2012,09,30,12,36,15.80
2012,09,30,12,37,16.00
2012,09,30,12,38,16.10
2012,09,30,12,39,16.30
2012,09,30,12,40,16.40
2012,09,30,12,41,16.60
2012,09,30,12,42,16.70
2012,09,30,12,43,16.80
2012,09,30,12,44,16.90
2012,09,30,12,45,16.90
2012,09,30,12,46,16.90
2012,09,30,12,47,16.90
2012,09,30,12,48,16.90
2012,09,30,12,49,16.90
2012,09,30,12,50,17.00
2012,09,30,12,51,17.10
2012,09,30,12,52,17.20
2012,09,30,12,53,17.30
2012,09,30,12,54,17.30
2012,09,30,12,55,17.40
2012,09,30,12,56,17.50
2012,09,30,12,57,17.50
2012,09,30,12,58,17.40
2012,09,30,12,59,17.30
2012,09,30,13,00,17.30
2012,09,30,13,01,17.20
2012,09,30,13,02,17.20
2012,09,30,13,03,17.00
2012,09,30,13,04,17.00
2012,09,30,13,05,16.90
2012,09,30,13,06,16.90
2012,09,30,13,07,16.80
2012,09,30,13,08,16.80
2012,09,30,13,09,16.80
2012,09,30,13,10,16.90
2012,09,30,13,11,16.90
2012,09,30,13,12,16.90
2012,09,30,13,13,16.90
2012,09,30,13,14,16.90
2012,09,30,13,15,16.90
2012,09,30,13,16,16.90
2012,09,30,13,17,17.00
2012,09,30,13,18,17.00
2012,09,30,13,19,17.00
2012,09,30,13,20,17.00
2012,09,30,13,21,17.10
2012,09,30,13,22,17.10
2012,09,30,13,23,17.10
2012,09,30,13,24,17.00
2012,09,30,13,25,16.90
2012,09,30,13,26,16.80
2012,09,30,13,27,16.70
2012,09,30,13,28,16.60
2012,09,30,13,29,16.60
2012,09,30,13,30,16.60
2012,09,30,13,31,16.60
2012,09,30,13,32,16.60
2012,09,30,13,33,16.60
2012,09,30,13,34,16.60
2012,09,30,13,35,16.60
2012,09,30,13,36,16.60
2012,09,30,13,37,16.60
2012,09,30,13,38,16.50
2012,09,30,13,39,16.50
2012,09,30,13,40,16.60
2012,09,30,13,41,16.70
2012,09,30,13,42,16.70
2012,09,30,13,43,16.80
2012,09,30,13,44,16.70
2012,09,30,13,45,16.70
2012,09,30,13,46,16.70
2012,09,30,13,47,16.70
2012,09,30,13,48,16.80
2012,09,30,13,49,16.80
2012,09,30,13,50,16.90
2012,09,30,13,51,16.90
2012,09,30,13,52,17.00
2012,09,30,13,53,17.00
2012,09,30,13,54,17.00
2012,09,30,13,55,17.00
2012,09,30,13,56,17.00
2012,09,30,13,57,17.00
2012,09,30,13,58,17.00
2012,09,30,13,59,17.00
2012,09,30,14,00,17.00
2012,09,30,14,01,17.00
2012,09,30,14,02,17.00
2012,09,30,14,03,17.00
2012,09,30,14,04,16.90
2012,09,30,14,05,16.90
2012,09,30,14,06,16.90
2012,09,30,14,07,16.80
2012,09,30,14,08,16.70
2012,09,30,14,09,16.80
2012,09,30,14,10,16.80
2012,09,30,14,11,16.90
2012,09,30,14,12,16.90
2012,09,30,14,13,17.00
2012,09,30,14,14,17.00
2012,09,30,14,15,17.00
2012,09,30,14,16,17.10
2012,09,30,14,17,17.10
2012,09,30,14,18,17.20
2012,09,30,14,19,17.20
2012,09,30,14,20,17.30
2012,09,30,14,21,17.30
2012,09,30,14,22,17.30
2012,09,30,14,23,17.30
2012,09,30,14,24,17.10
2012,09,30,14,25,17.00
2012,09,30,14,26,17.00
2012,09,30,14,27,17.00
2012,09,30,14,28,16.90
2012,09,30,14,29,16.80
2012,09,30,14,30,16.70
2012,09,30,14,31,16.70
2012,09,30,14,32,16.80
2012,09,30,14,33,16.90
2012,09,30,14,34,17.00
2012,09,30,14,35,17.00
2012,09,30,14,36,17.00
2012,09,30,14,37,16.90
2012,09,30,14,38,16.80
2012,09,30,14,39,16.80
2012,09,30,14,40,16.80
2012,09,30,14,41,16.90
2012,09,30,14,42,17.00
2012,09,30,14,43,17.10
2012,09,30,14,44,17.20
2012,09,30,14,45,17.30
2012,09,30,14,46,17.40
2012,09,30,14,47,17.50
2012,09,30,14,48,17.50
2012,09,30,14,49,17.60
2012,09,30,14,50,17.60
2012,09,30,14,51,17.50
2012,09,30,14,52,17.50
2012,09,30,14,53,17.40
2012,09,30,14,54,17.40
2012,09,30,14,55,17.50
2012,09,30,14,56,17.50
2012,09,30,14,57,17.60
2012,09,30,14,58,17.60
2012,09,30,14,59,17.70
2012,09,30,15,00,17.70
2012,09,30,15,01,17.70
2012,09,30,15,02,17.80
2012,09,30,15,03,17.80
2012,09,30,15,04,17.80
2012,09,30,15,05,17.80
2012,09,30,15,06,17.80
2012,09,30,15,07,17.80
2012,09,30,15,08,17.90
2012,09,30,15,09,17.90
2012,09,30,15,10,17.90
2012,09,30,15,11,17.90
2012,09,30,15,12,17.80
2012,09,30,15,13,17.80
2012,09,30,15,14,17.80
2012,09,30,15,15,17.80
2012,09,30,15,16,17.80
2012,09,30,15,17,17.90
2012,09,30,15,18,17.90
2012,09,30,15,19,17.90
2012,09,30,15,20,17.90
2012,09,30,15,21,17.90
2012,09,30,15,22,17.90
2012,09,30,15,23,17.90
2012,09,30,15,24,17.90
2012,09,30,15,25,17.90
2012,09,30,15,26,17.90
2012,09,30,15,27,17.80
2012,09,30,15,28,17.70
2012,09,30,15,29,17.50
2012,09,30,15,30,17.50
2012,09,30,15,31,17.50
2012,09,30,15,32,17.50
2012,09,30,15,33,17.50
2012,09,30,15,34,17.50
2012,09,30,15,35,17.50
2012,09,30,15,36,17.50
2012,09,30,15,37,17.60
2012,09,30,15,38,17.60
2012,09,30,15,39,17.70
2012,09,30,15,40,17.80
2012,09,30,15,41,17.90
2012,09,30,15,42,17.90
2012,09,30,15,43,17.90
2012,09,30,15,44,18.00
2012,09,30,15,45,18.10
2012,09,30,15,46,18.10
2012,09,30,15,47,18.20
2012,09,30,15,48,18.20
2012,09,30,15,49,18.20
2012,09,30,15,50,18.30
2012,09,30,15,51,18.40
2012,09,30,15,52,18.50
2012,09,30,15,53,18.60
2012,09,30,15,54,18.70
2012,09,30,15,55,18.90
2012,09,30,15,56,18.90
2012,09,30,15,57,18.90
2012,09,30,15,58,18.90
2012,09,30,15,59,18.90
2012,09,30,16,00,18.90
2012,09,30,16,01,18.90
2012,09,30,16,02,18.90
2012,09,30,16,03,18.90
2012,09,30,16,04,18.90
2012,09,30,16,05,18.80
2012,09,30,16,06,18.60
2012,09,30,16,07,18.50
2012,09,30,16,08,18.40
2012,09,30,16,09,18.20
2012,09,30,16,10,18.10
2012,09,30,16,11,17.90
2012,09,30,16,12,17.90
2012,09,30,16,13,17.70
2012,09,30,16,14,17.50
2012,09,30,16,15,17.40
2012,09,30,16,16,17.30
2012,09,30,16,17,17.30
2012,09,30,16,18,17.30
2012,09,30,16,19,17.30
2012,09,30,16,20,17.30
2012,09,30,16,21,17.30
2012,09,30,16,22,17.40
2012,09,30,16,23,17.40
2012,09,30,16,24,17.40
2012,09,30,16,25,17.30
2012,09,30,16,26,17.30
2012,09,30,16,27,17.30
2012,09,30,16,28,17.30
2012,09,30,16,29,17.30
2012,09,30,16,30,17.30
2012,09,30,16,31,17.30
2012,09,30,16,32,17.20
2012,09,30,16,33,17.20
2012,09,30,16,34,17.30
2012,09,30,16,35,17.40
2012,09,30,16,36,17.50
2012,09,30,16,37,17.50
2012,09,30,16,38,17.60
2012,09,30,16,39,17.50
2012,09,30,16,40,17.50
2012,09,30,16,41,17.50
2012,09,30,16,42,17.40
2012,09,30,16,43,17.40
2012,09,30,16,44,17.40
2012,09,30,16,45,17.40
2012,09,30,16,46,17.40
2012,09,30,16,47,17.40
2012,09,30,16,48,17.40
2012,09,30,16,49,17.40
2012,09,30,16,50,17.50
2012,09,30,16,51,17.60
2012,09,30,16,52,17.60
2012,09,30,16,53,17.70
2012,09,30,16,54,17.70
2012,09,30,16,55,17.80
2012,09,30,16,56,17.70
2012,09,30,16,57,17.70
2012,09,30,16,58,17.70
2012,09,30,16,59,17.70
2012,09,30,17,00,17.70
2012,09,30,17,01,17.60
2012,09,30,17,02,17.40
2012,09,30,17,03,17.30
2012,09,30,17,04,17.30
2012,09,30,17,05,17.30
2012,09,30,17,06,17.20
2012,09,30,17,07,17.10
2012,09,30,17,08,17.00
2012,09,30,17,09,16.90
2012,09,30,17,10,16.80
2012,09,30,17,11,16.80
2012,09,30,17,12,16.80
2012,09,30,17,13,16.70
2012,09,30,17,14,16.70
2012,09,30,17,15,16.70
2012,09,30,17,16,16.70
2012,09,30,17,17,16.70
2012,09,30,17,18,16.70
2012,09,30,17,19,16.70
2012,09,30,17,20,16.70
2012,09,30,17,21,16.70
2012,09,30,17,22,16.80
2012,09,30,17,23,16.80
2012,09,30,17,24,16.80
2012,09,30,17,25,16.80
2012,09,30,17,26,16.90
2012,09,30,17,27,16.90
2012,09,30,17,28,16.90
2012,09,30,17,29,16.90
2012,09,30,17,30,16.90
2012,09,30,17,31,16.90
2012,09,30,17,32,16.90
2012,09,30,17,33,16.90
2012,09,30,17,34,17.00
2012,09,30,17,35,17.00
2012,09,30,17,36,17.00
2012,09,30,17,37,17.00
2012,09,30,17,38,17.00
2012,09,30,17,39,16.90
2012,09,30,17,40,16.90
2012,09,30,17,41,16.90
2012,09,30,17,42,16.90
2012,09,30,17,43,16.80
2012,09,30,17,44,16.80
2012,09,30,17,45,16.80
2012,09,30,17,46,16.80
2012,09,30,17,47,16.70
2012,09,30,17,48,16.70
2012,09,30,17,49,16.70
2012,09,30,17,50,16.70
2012,09,30,17,51,16.70
2012,09,30,17,52,16.70
2012,09,30,17,53,16.70
2012,09,30,17,54,16.70
2012,09,30,17,55,16.70
2012,09,30,17,56,16.80
2012,09,30,17,57,16.80
2012,09,30,17,58,16.80
2012,09,30,17,59,16.80
2012,09,30,18,00,16.80
2012,09,30,18,01,16.90
2012,09,30,18,02,16.90
2012,09,30,18,03,16.90
2012,09,30,18,04,16.90
2012,09,30,18,05,16.90
2012,09,30,18,06,16.80
2012,09,30,18,07,16.80
2012,09,30,18,08,16.80
2012,09,30,18,09,16.80
2012,09,30,18,10,16.70
2012,09,30,18,11,16.70
2012,09,30,18,12,16.70
2012,09,30,18,13,16.70
2012,09,30,18,14,16.70
2012,09,30,18,15,16.60
2012,09,30,18,16,16.60
2012,09,30,18,17,16.50
2012,09,30,18,18,16.40
2012,09,30,18,19,16.40
2012,09,30,18,20,16.30
2012,09,30,18,21,16.20
2012,09,30,18,22,16.10
2012,09,30,18,23,16.00
2012,09,30,18,24,15.90
2012,09,30,18,25,15.80
2012,09,30,18,26,15.60
2012,09,30,18,27,15.50
2012,09,30,18,28,15.50
2012,09,30,18,29,15.40
2012,09,30,18,30,15.30
2012,09,30,18,31,15.30
2012,09,30,18,32,15.30
2012,09,30,18,33,15.20
2012,09,30,18,34,15.10
2012,09,30,18,35,15.10
2012,09,30,18,36,15.00
2012,09,30,18,37,14.90
2012,09,30,18,38,14.90
2012,09,30,18,39,14.80
2012,09,30,18,40,14.80
2012,09,30,18,41,14.80
2012,09,30,18,42,14.70
2012,09,30,18,43,14.70
2012,09,30,18,44,14.60
2012,09,30,18,45,14.60
2012,09,30,18,46,14.50
2012,09,30,18,47,14.50